User: anonymous
Location: Caltech
(34.1382°N, 118.1253°W)
Time: 00:35:29
(UTC-07:00)
Language:

IRS-1A Rocket - Orbit

View from above orbital plane
View from above orbital plane
View from above satellite
View from above satellite

Ground track
Ground track

The orbit data is extracted from the following two-line orbital elements,

1 18961U 88021B   14243.49119839 -.00000288  00000-0 -16053-3 0  7099
2 18961 099.2804 218.1649 0055642 143.6622 323.1235 14.00712180352537
Epoch (UTC): 31 August 2014 11:47:19
Eccentricity: 0.0055642
inclination: 99.2804°
perigee height: 851 km
apogee height: 932 km
right ascension of ascending node: 218.1649°
argument of perigee: 143.6622°
revolutions per day: 14.00712180
mean anomaly at epoch: 323.1235°
orbit number at epoch: 35253

The dashed part of the orbit path shows where the satellite is in the earth's shadow,  

DLR